QPF
0.00 0.00 0.00 0.00 0.00 0.00 0.00 0.00 0.00 0.00 0.00 0.00 0.00 0.00 0.00 0.00 0.00 0.00 0.00 0.00 0.00 0.02 0.03 0.03 0.06 0.06 0.05 0.01 0.01 0.01 0.01 0.01 0.01 0.00 0.00 0.00 0.00 0.00 0.00 0.00 0.00 0.00 0.01
0.00 0.00 0.00 0.00 0.00 0.00 0.00 0.00 0.00 0.00 0.00 0.00 0.00 0.00 0.00 0.00 0.00 0.00 0.00 0.00 0.00 0.00 0.01 0.02 0.04 0.04 0.01 0.00 0.00 0.00 0.00 0.00 0.00 0.00 0.00 0.00 0.00 0.00 0.00 0.00 0.00 0.00 0.00
0.00 0.00 0.00 0.00 0.00 0.00 0.00 0.00 0.00 0.00 0.00 0.00 0.00 0.00 0.00 0.00 0.00 0.00 0.00 0.00 0.00 0.00 0.00 0.00 0.00 0.00 0.00 0.00 0.00 0.00 0.00 0.00 0.00 0.00 0.00 0.00 0.00 0.00 0.00 0.00 0.00 0.00 0.00
0.00 0.00 0.00 0.00 0.00 0.00 0.00 0.00 0.00 0.00 0.00 0.00 0.00 0.00 0.00 0.00 0.00 0.00 0.00 0.00 0.01 0.01 0.00 0.00 0.00 0.00 0.00 0.00 0.00 0.00 0.00 0.00 0.00 0.00 0.00 0.00 0.00 0.00 0.00 0.00 0.00 0.00 0.00
0.00 0.00 0.00 0.00 0.00 0.00 0.00 0.00 0.00 0.00 0.00 0.00 0.00 0.00 0.00 0.00 0.00 0.00 0.00 0.00 0.01 0.01 0.00 0.00 0.00 0.00 0.00 0.00 0.00 0.00 0.00 0.00 0.00 0.00 0.00 0.00 0.00 0.00 0.00 0.00 0.00 0.00 0.00
0.00 0.00 0.00 0.00 0.00 0.00 0.00 0.00 0.00 0.00 0.00 0.00 0.00 0.01 0.00 0.00 0.00 0.00 0.00 0.01 0.03 0.00 0.00 0.00 0.00 0.00 0.00 0.00 0.00 0.00 0.00 0.00 0.00 0.00 0.00 0.00 0.00 0.00 0.00 0.00 0.00 0.00 0.00
0.00 0.00 0.00 0.00 0.00 0.00 0.00 0.00 0.00 0.01 0.03 0.07 0.06 0.03 0.02 0.01 0.01 0.02 0.04 0.03 0.03 0.04 0.00 0.00 0.00 0.00 0.00 0.00 0.00 0.00 0.00 0.00 0.00 0.00 0.00 0.00 0.00 0.00 0.00 0.00 0.00 0.00 0.00
0.00 0.00 0.00 0.00 0.00 0.00 0.00 0.00 0.02 0.04 0.06 0.10 0.11 0.09 0.07 0.09 0.12 0.17 0.27 0.27 0.10 0.05 0.01 0.00 0.00 0.00 0.00 0.00 0.00 0.00 0.00 0.00 0.00 0.00 0.00 0.00 0.00 0.00 0.00 0.00 0.00 0.00 0.00
0.02 0.02 0.01 0.00 0.01 0.01 0.03 0.06 0.13 0.15 0.18 0.18 0.13 0.16 0.22 0.11 0.14 0.17 0.22 0.23 0.15 0.10 0.05 0.02 0.01 0.01 0.00 0.00 0.00 0.00 0.00 0.00 0.00 0.00 0.00 0.00 0.00 0.00 0.00 0.00 0.00 0.00 0.00
0.02 0.02 0.05 0.03 0.01 0.01 0.01 0.02 0.09 0.17 0.21 0.23 0.23 0.20 0.15 0.10 0.13 0.27 0.22 0.22 0.29 0.34 0.29 0.16 0.11 0.06 0.02 0.01 0.00 0.00 0.00 0.00 0.00 0.00 0.00 0.00 0.00 0.01 0.00 0.00 0.00 0.00 0.00
0.00 0.03 0.07 0.08 0.03 0.01 0.01 0.02 0.05 0.09 0.09 0.10 0.10 0.11 0.10 0.09 0.10 0.09 0.16 0.34 0.38 0.39 0.38 0.32 0.24 0.13 0.06 0.03 0.00 0.00 0.00 0.00 0.00 0.00 0.00 0.00 0.01 0.01 0.00 0.00 0.00 0.00 0.00
0.00 0.02 0.01 0.01 0.00 0.01 0.00 0.01 0.02 0.02 0.03 0.05 0.05 0.04 0.04 0.05 0.06 0.12 0.21 0.23 0.23 0.19 0.19 0.20 0.16 0.12 0.09 0.05 0.02 0.00 0.00 0.00 0.00 0.00 0.00 0.00 0.01 0.00 0.00 0.00 0.00 0.00 0.00
0.00 0.00 0.00 0.00 0.00 0.00 0.00 0.01 0.01 0.00 0.01 0.02 0.02 0.04 0.07 0.08 0.12 0.13 0.10 0.03 0.02 0.02 0.07 0.11 0.11 0.11 0.08 0.04 0.01 0.01 0.01 0.00 0.00 0.00 0.00 0.00 0.00 0.00 0.00 0.00 0.00 0.00 0.00
0.00 0.00 0.00 0.00 0.00 0.00 0.00 0.00 0.00 0.00 0.01 0.01 0.00 0.01 0.01 0.01 0.01 0.01 0.00 0.00 0.00 0.01 0.02 0.04 0.10 0.11 0.08 0.05 0.04 0.04 0.01 0.01 0.00 0.00 0.00 0.00 0.00 0.00 0.00 0.00 0.00 0.00 0.00
0.00 0.00 0.00 0.00 0.00 0.00 0.00 0.00 0.00 0.00 0.00 0.00 0.00 0.00 0.00 0.00 0.00 0.00 0.00 0.00 0.00 0.01 0.02 0.03 0.06 0.07 0.07 0.05 0.05 0.03 0.02 0.02 0.00 0.00 0.00 0.00 0.00 0.00 0.00 0.00 0.00 0.00 0.00
0.00 0.00 0.00 0.00 0.00 0.00 0.00 0.00 0.00 0.00 0.00 0.00 0.00 0.00 0.00 0.00 0.00 0.01 0.01 0.01 0.01 0.01 0.02 0.02 0.04 0.06 0.07 0.06 0.06 0.05 0.03 0.02 0.00 0.00 0.00 0.00 0.00 0.00 0.00 0.00 0.00 0.00 0.00
0.00 0.00 0.00 0.00 0.00 0.00 0.00 0.00 0.00 0.00 0.00 0.00 0.00 0.00 0.00 0.00 0.00 0.01 0.03 0.04 0.04 0.04 0.04 0.04 0.04 0.04 0.05 0.03 0.03 0.04 0.01 0.00 0.00 0.00 0.00 0.00 0.00 0.00 0.00 0.00 0.00 0.00 0.00
0.00 0.00 0.00 0.00 0.00 0.00 0.00 0.00 0.00 0.00 0.00 0.00 0.00 0.00 0.00 0.01 0.01 0.00 0.02 0.04 0.04 0.03 0.04 0.05 0.04 0.03 0.01 0.01 0.01 0.01 0.01 0.00 0.00 0.00 0.00 0.00 0.00 0.00 0.00 0.00 0.00 0.00 0.00
0.00 0.00 0.00 0.00 0.00 0.00 0.00 0.00 0.00 0.00 0.00 0.00 0.00 0.00 0.01 0.00 0.00 0.00 0.00 0.01 0.02 0.01 0.01 0.01 0.00 0.00 0.00 0.00 0.01 0.01 0.01 0.01 0.00 0.00 0.00 0.00 0.00 0.00 0.00 0.00 0.00 0.00 0.00
0.00 0.00 0.00 0.00 0.00 0.00 0.00 0.00 0.00 0.00 0.00 0.00 0.00 0.00 0.00 0.00 0.00 0.00 0.00 0.00 0.01 0.00 0.00 0.00 0.00 0.00 0.00 0.00 0.00 0.01 0.01 0.01 0.01 0.00 0.00 0.00 0.00 0.00 0.00 0.00 0.00 0.00 0.00
0.00 0.00 0.00 0.00 0.00 0.00 0.00 0.00 0.00 0.00 0.00 0.00 0.00 0.00 0.00 0.01 0.02 0.02 0.00 0.00 0.00 0.00 0.00 0.00 0.00 0.00 0.00 0.00 0.00 0.00 0.00 0.01 0.02 0.01 0.00 0.00 0.00 0.00 0.00 0.00 0.00 0.00 0.00
0.00 0.00 0.00 0.00 0.00 0.00 0.00 0.00 0.01 0.00 0.00 0.00 0.00 0.00 0.00 0.03 0.02 0.02 0.01 0.00 0.00 0.00 0.00 0.00 0.00 0.00 0.00 0.00 0.00 0.00 0.00 0.01 0.01 0.01 0.00 0.00 0.00 0.00 0.00 0.00 0.00 0.00 0.00
0.00 0.00 0.00 0.00 0.00 0.00 0.01 0.02 0.02 0.01 0.00 0.00 0.00 0.00 0.00 0.00 0.00 0.00 0.00 0.00 0.00 0.00 0.00 0.00 0.00 0.00 0.00 0.00 0.00 0.00 0.00 0.00 0.00 0.00 0.00 0.01 0.00 0.00 0.00 0.00 0.00 0.00 0.00
0.00 0.00 0.00 0.00 0.00 0.00 0.02 0.03 0.03 0.02 0.00 0.00 0.00 0.01 0.02 0.02 0.01 0.00 0.00 0.00 0.00 0.00 0.00 0.00 0.00 0.00 0.00 0.00 0.00 0.00 0.00 0.00 0.01 0.03 0.01 0.00 0.00 0.00 0.00 0.00 0.00 0.00 0.00
0.00 0.00 0.00 0.00 0.00 0.00 0.03 0.04 0.10 0.07 0.07 0.07 0.08 0.09 0.07 0.05 0.02 0.00 0.00 0.00 0.00 0.00 0.00 0.00 0.00 0.00 0.00 0.00 0.00 0.00 0.00 0.01 0.02 0.02 0.01 0.00 0.00 0.00 0.01 0.00 0.00 0.00 0.00
0.00 0.00 0.00 0.00 0.01 0.02 0.04 0.09 0.17 0.23 0.24 0.21 0.20 0.20 0.10 0.02 0.01 0.00 0.00 0.00 0.00 0.00 0.00 0.00 0.00 0.00 0.00 0.00 0.00 0.00 0.00 0.00 0.00 0.01 0.00 0.00 0.00 0.00 0.01 0.00 0.00 0.00 0.00
MSLP
1018.00 1018.28 1018.91 1019.24 1019.96 1020.23 1020.18 1020.25 1020.57 1020.92 1021.26 1021.41 1021.43 1021.46 1021.46 1021.54 1021.50 1021.35 1021.43 1021.97 1022.08 1022.28 1022.52 1022.88 1023.44 1023.75 1024.15 1024.49 1024.81 1025.00 1025.21 1025.42 1025.69 1025.88 1025.96 1026.21 1026.42 1026.52 1026.64 1026.75 1026.75 1026.57 1026.48
1017.62 1018.11 1018.79 1019.32 1019.78 1020.26 1020.22 1020.31 1020.23 1020.64 1020.87 1021.30 1021.50 1021.56 1021.50 1021.78 1021.94 1021.68 1021.64 1021.94 1022.29 1022.40 1022.77 1023.13 1023.53 1024.06 1024.46 1024.89 1025.25 1025.55 1025.66 1025.58 1025.73 1026.10 1026.33 1026.39 1026.47 1026.58 1026.80 1027.06 1027.03 1027.01 1026.99
1017.58 1017.97 1018.53 1019.19 1019.48 1019.95 1020.07 1020.18 1020.62 1020.72 1020.93 1021.26 1021.44 1021.75 1021.93 1022.00 1022.01 1022.05 1021.91 1021.92 1022.38 1022.60 1022.68 1022.98 1023.42 1023.92 1024.51 1024.77 1025.20 1025.67 1025.98 1025.91 1025.68 1025.49 1026.18 1026.59 1026.45 1026.58 1026.70 1027.01 1027.12 1027.04 1027.05
1017.15 1017.60 1017.97 1018.27 1018.73 1019.37 1019.62 1019.70 1020.07 1020.53 1020.83 1021.04 1021.24 1021.83 1021.91 1022.06 1022.09 1022.05 1021.88 1022.17 1022.47 1022.77 1023.15 1023.28 1023.45 1023.91 1024.46 1025.25 1025.42 1025.88 1026.46 1026.40 1026.56 1025.85 1025.96 1026.29 1026.86 1027.05 1026.97 1026.99 1027.15 1027.30 1027.27
1016.82 1017.09 1017.36 1017.77 1018.40 1019.06 1019.41 1019.60 1020.04 1020.42 1020.67 1021.19 1021.39 1021.85 1022.00 1021.87 1022.02 1022.10 1022.19 1022.34 1022.43 1022.68 1023.04 1023.35 1023.53 1023.79 1024.04 1024.57 1024.90 1025.45 1025.75 1026.62 1026.96 1026.47 1026.32 1026.91 1027.29 1027.33 1027.28 1027.23 1027.10 1027.08 1027.23
1016.52 1016.79 1017.12 1017.50 1017.98 1018.40 1018.95 1019.23 1019.62 1020.09 1020.36 1020.67 1021.39 1021.97 1022.17 1022.19 1022.31 1022.49 1022.42 1022.38 1022.51 1022.95 1023.04 1023.53 1023.65 1023.74 1023.99 1024.51 1024.89 1025.60 1025.98 1026.38 1026.72 1026.61 1026.64 1026.98 1027.43 1028.02 1027.72 1027.55 1027.25 1027.11 1027.03
1016.09 1016.32 1016.59 1017.02 1017.44 1017.81 1018.33 1018.75 1019.06 1019.55 1020.32 1020.84 1021.42 1021.94 1022.14 1022.23 1022.32 1022.54 1022.60 1022.35 1022.34 1022.42 1023.10 1023.08 1023.53 1023.65 1024.23 1024.74 1025.08 1025.55 1026.00 1026.55 1027.02 1026.73 1027.16 1027.63 1027.44 1027.84 1028.07 1027.78 1027.59 1027.38 1027.34
1015.34 1015.70 1016.00 1016.55 1016.97 1017.40 1017.86 1018.29 1018.91 1019.60 1020.22 1020.50 1020.87 1021.62 1022.18 1022.92 1022.88 1022.73 1023.01 1022.93 1022.46 1022.85 1023.40 1023.77 1023.64 1023.96 1023.93 1024.46 1025.18 1025.49 1025.92 1026.60 1027.17 1027.43 1027.94 1027.36 1027.73 1028.06 1028.39 1028.29 1027.69 1027.77 1027.42
1014.77 1015.21 1015.64 1015.96 1016.40 1016.81 1017.11 1017.69 1018.32 1018.78 1019.43 1019.88 1020.18 1020.59 1021.69 1021.38 1022.58 1023.01 1023.42 1023.89 1023.04 1023.99 1023.69 1023.94 1024.32 1024.49 1024.65 1024.64 1025.34 1026.08 1026.10 1026.39 1027.34 1027.51 1027.66 1028.43 1027.78 1028.01 1028.28 1028.73 1028.58 1028.36 1027.84
1014.66 1015.04 1015.30 1015.58 1015.96 1016.41 1016.69 1016.89 1017.36 1017.75 1018.44 1019.11 1019.87 1020.12 1020.39 1020.64 1021.58 1022.92 1023.66 1023.79 1023.78 1024.54 1025.05 1024.46 1024.73 1024.48 1024.62 1025.06 1025.39 1026.44 1026.95 1026.99 1027.36 1027.86 1027.90 1028.59 1028.77 1028.38 1028.27 1028.68 1028.99 1028.56 1028.29
1014.86 1015.18 1015.49 1015.69 1016.08 1016.22 1016.46 1016.83 1017.10 1017.44 1017.81 1018.27 1018.75 1019.46 1020.04 1020.35 1020.66 1021.53 1022.77 1024.03 1024.17 1024.52 1025.00 1025.51 1025.51 1025.67 1025.72 1025.89 1026.24 1026.60 1026.79 1027.14 1027.88 1028.17 1028.36 1028.35 1028.92 1028.77 1028.96 1028.97 1029.24 1029.06 1028.79
1014.92 1015.13 1015.50 1015.66 1015.97 1016.14 1016.31 1016.50 1016.80 1017.13 1017.38 1017.52 1017.66 1018.00 1018.44 1019.20 1019.76 1020.47 1021.78 1022.89 1023.58 1024.80 1025.14 1025.50 1025.76 1026.02 1026.13 1026.54 1026.88 1026.96 1027.65 1027.69 1028.43 1028.47 1028.65 1028.57 1029.15 1029.55 1029.65 1029.86 1029.78 1029.59 1029.25
1015.02 1015.21 1015.50 1015.72 1015.71 1015.77 1016.29 1016.45 1016.63 1016.68 1016.73 1017.06 1017.37 1017.64 1017.77 1018.19 1018.48 1019.69 1020.31 1021.98 1023.00 1024.60 1025.62 1025.74 1025.66 1026.11 1026.24 1026.87 1027.31 1027.31 1027.97 1028.21 1028.64 1028.85 1029.00 1029.05 1029.55 1030.30 1030.88 1031.00 1030.65 1030.52 1030.24
1015.03 1015.29 1015.26 1015.48 1015.39 1015.62 1015.46 1015.53 1016.06 1016.61 1016.84 1016.81 1016.74 1017.10 1017.73 1018.29 1018.52 1018.98 1019.54 1020.74 1022.73 1023.72 1024.52 1025.09 1026.15 1026.18 1026.34 1026.76 1027.49 1027.73 1028.42 1028.70 1028.90 1029.62 1029.32 1029.56 1030.38 1031.06 1031.57 1031.45 1031.54 1031.47 1031.05
1014.78 1015.36 1015.52 1015.62 1015.59 1015.72 1015.88 1015.96 1015.89 1015.91 1016.17 1016.35 1016.78 1017.02 1017.10 1017.72 1018.03 1018.48 1018.80 1019.22 1020.18 1022.25 1023.40 1024.43 1025.00 1025.90 1026.18 1026.48 1027.19 1027.92 1028.51 1028.85 1029.40 1029.70 1029.80 1029.91 1031.01 1031.55 1031.82 1032.15 1032.10 1032.20 1031.70
1014.73 1014.82 1015.32 1015.58 1015.73 1015.85 1015.89 1015.96 1015.93 1015.98 1016.44 1017.05 1017.23 1017.13 1017.19 1017.26 1017.89 1018.09 1018.58 1018.89 1019.21 1020.03 1022.21 1023.31 1024.12 1024.54 1025.49 1026.10 1027.25 1027.94 1028.60 1029.14 1029.72 1029.83 1030.14 1030.50 1031.21 1031.83 1032.38 1032.60 1032.62 1032.61 1032.30
1015.14 1015.33 1015.51 1016.03 1016.10 1015.81 1015.81 1015.92 1015.74 1015.92 1016.29 1016.51 1016.66 1016.93 1017.29 1017.24 1017.43 1017.64 1018.17 1018.99 1019.07 1019.79 1021.29 1023.23 1023.47 1024.54 1025.22 1025.79 1026.98 1027.66 1028.64 1029.29 1029.90 1030.29 1030.55 1030.92 1031.53 1032.04 1032.33 1032.62 1032.87 1033.02 1032.91
1014.91 1015.25 1015.43 1015.53 1016.15 1016.34 1016.11 1015.95 1016.13 1016.19 1016.13 1016.31 1016.56 1016.79 1017.10 1017.52 1017.59 1017.81 1018.09 1018.46 1018.89 1019.13 1020.07 1021.96 1023.30 1024.11 1024.86 1025.56 1026.76 1027.67 1028.80 1029.48 1029.98 1030.58 1030.81 1031.36 1031.80 1032.09 1032.55 1032.79 1033.28 1033.37 1033.13
1015.01 1015.46 1015.53 1015.52 1015.36 1014.97 1016.23 1015.95 1015.79 1016.08 1016.36 1016.51 1016.19 1016.57 1016.73 1017.20 1017.38 1017.58 1017.83 1018.33 1018.92 1019.32 1019.71 1021.03 1022.59 1023.86 1024.72 1025.51 1026.67 1027.98 1028.92 1029.66 1030.14 1030.56 1031.17 1031.65 1031.97 1032.17 1032.81 1033.09 1033.31 1033.29 1033.34
1015.19 1015.13 1015.35 1015.36 1015.54 1015.70 1015.30 1015.78 1015.73 1015.51 1015.33 1016.08 1016.35 1016.35 1016.95 1017.10 1017.30 1017.82 1017.84 1018.15 1018.68 1019.15 1020.11 1021.13 1022.42 1023.35 1024.30 1025.56 1026.08 1027.55 1028.92 1029.63 1030.12 1030.55 1031.07 1031.56 1032.08 1032.61 1032.88 1033.11 1033.42 1033.37 1033.59
1014.85 1015.01 1014.86 1015.20 1014.79 1014.92 1015.48 1015.54 1015.72 1015.32 1015.61 1016.09 1016.48 1016.43 1016.55 1016.67 1016.71 1017.58 1018.07 1018.45 1018.55 1018.86 1019.54 1021.12 1022.42 1023.37 1024.03 1025.08 1025.72 1027.34 1028.44 1029.37 1030.31 1030.56 1030.75 1031.47 1031.72 1032.25 1032.71 1033.34 1033.37 1033.44 1033.66
1014.55 1014.52 1014.09 1014.73 1014.58 1014.38 1014.92 1015.16 1015.76 1015.35 1015.04 1015.23 1015.89 1016.56 1016.46 1017.05 1017.04 1017.14 1018.11 1018.44 1018.56 1018.74 1019.23 1020.53 1021.77 1022.39 1023.19 1023.93 1025.08 1026.31 1027.81 1029.03 1029.74 1030.53 1030.39 1031.02 1031.55 1031.79 1032.44 1032.65 1033.29 1033.65 1033.82
1013.69 1013.79 1013.86 1014.21 1014.03 1014.19 1014.45 1014.73 1014.82 1014.82 1015.04 1015.26 1015.18 1015.72 1016.43 1016.30 1016.68 1017.33 1017.84 1018.27 1019.18 1019.13 1018.67 1019.46 1020.78 1021.67 1022.43 1023.17 1024.31 1025.68 1026.75 1027.36 1027.58 1029.21 1029.78 1030.79 1031.61 1031.87 1032.24 1032.86 1033.46 1033.72 1033.95
1013.25 1013.46 1013.40 1013.80 1014.13 1014.13 1014.18 1014.03 1014.15 1014.27 1014.50 1014.66 1014.68 1015.12 1015.54 1016.58 1016.33 1016.88 1017.32 1018.39 1019.56 1019.77 1019.67 1019.33 1020.79 1020.91 1021.47 1022.64 1023.19 1024.17 1025.56 1026.96 1027.91 1029.05 1029.12 1030.18 1031.34 1031.81 1032.34 1032.48 1033.22 1033.54 1033.81
1013.23 1013.07 1013.12 1013.29 1013.49 1013.33 1013.35 1013.18 1013.85 1014.11 1014.56 1014.46 1014.54 1015.15 1015.01 1015.89 1016.09 1016.94 1017.25 1018.43 1019.86 1020.63 1020.15 1019.93 1020.59 1021.00 1021.59 1022.32 1022.98 1024.01 1025.25 1026.34 1027.71 1028.73 1029.43 1029.87 1030.84 1031.53 1032.25 1032.58 1032.75 1033.17 1033.54
1013.00 1012.86 1012.81 1012.68 1012.60 1012.45 1012.64 1012.96 1013.32 1013.62 1014.36 1014.68 1014.64 1014.05 1015.59 1015.59 1015.86 1016.24 1017.08 1017.55 1019.20 1020.39 1020.50 1020.63 1020.96 1021.41 1022.23 1022.80 1023.10 1023.46 1024.43 1025.30 1026.51 1028.12 1029.01 1029.45 1030.34 1030.91 1031.69 1032.24 1032.56 1032.83 1033.22
Thickness
5710 5708 5704 5700 5694 5692 5690 5690 5687 5685 5681 5679 5679 5678 5677 5676 5675 5675 5672 5668 5665 5662 5658 5654 5649 5646 5642 5638 5635 5633 5630 5627 5624 5622 5621 5618 5615 5614 5613 5612 5612 5614 5614
5709 5706 5700 5696 5692 5689 5687 5685 5687 5682 5681 5677 5675 5674 5674 5671 5668 5667 5666 5662 5660 5655 5651 5647 5643 5637 5633 5629 5626 5623 5622 5622 5619 5614 5610 5609 5608 5606 5605 5601 5601 5600 5600
5705 5702 5698 5694 5690 5686 5684 5683 5680 5678 5675 5673 5671 5668 5666 5664 5663 5661 5660 5657 5653 5650 5647 5642 5637 5630 5624 5622 5618 5614 5612 5612 5613 5611 5603 5598 5598 5597 5596 5592 5591 5591 5590
5706 5703 5700 5697 5693 5689 5686 5684 5681 5677 5673 5671 5670 5663 5660 5658 5657 5656 5654 5651 5647 5644 5639 5634 5630 5624 5619 5610 5608 5604 5599 5596 5594 5601 5597 5592 5584 5581 5582 5582 5580 5578 5578
5705 5703 5701 5697 5692 5687 5684 5681 5677 5673 5671 5665 5663 5657 5654 5653 5651 5648 5645 5642 5640 5637 5632 5626 5623 5619 5615 5608 5604 5597 5594 5584 5579 5581 5582 5575 5570 5567 5567 5567 5568 5568 5567
5703 5701 5698 5695 5690 5688 5683 5679 5676 5672 5669 5666 5658 5650 5647 5644 5640 5637 5635 5635 5633 5626 5622 5617 5616 5612 5608 5599 5596 5586 5581 5575 5569 5566 5565 5563 5557 5549 5551 5552 5554 5555 5555
5702 5701 5698 5695 5690 5689 5685 5680 5678 5672 5664 5658 5650 5645 5639 5638 5637 5634 5630 5625 5622 5620 5610 5610 5606 5601 5593 5588 5582 5576 5569 5564 5556 5556 5550 5544 5546 5541 5536 5537 5538 5540 5540
5704 5701 5700 5694 5689 5686 5682 5678 5671 5663 5657 5654 5646 5637 5633 5626 5625 5624 5620 5615 5615 5608 5599 5594 5593 5589 5584 5577 5568 5565 5557 5548 5543 5538 5530 5536 5531 5523 5519 5521 5524 5523 5525
5704 5700 5696 5692 5689 5685 5682 5676 5668 5663 5655 5652 5646 5639 5622 5630 5618 5610 5604 5597 5603 5588 5587 5580 5578 5575 5569 5565 5554 5544 5543 5538 5527 5524 5521 5509 5518 5513 5508 5503 5504 5505 5507
5699 5694 5690 5688 5687 5683 5679 5676 5671 5665 5656 5648 5638 5636 5630 5626 5619 5605 5594 5588 5584 5574 5564 5565 5564 5559 5554 5549 5542 5529 5522 5520 5516 5509 5508 5496 5493 5499 5499 5492 5487 5492 5492
5691 5688 5683 5681 5677 5675 5672 5669 5665 5660 5654 5646 5639 5630 5623 5619 5614 5606 5593 5579 5575 5567 5561 5550 5544 5541 5535 5530 5522 5516 5513 5507 5499 5494 5490 5487 5480 5481 5478 5477 5473 5474 5475
5684 5681 5677 5673 5668 5665 5662 5659 5655 5650 5646 5643 5640 5635 5629 5619 5611 5605 5590 5575 5569 5553 5546 5537 5531 5526 5523 5515 5506 5501 5495 5491 5482 5480 5475 5472 5467 5463 5462 5458 5457 5458 5460
5675 5672 5668 5665 5663 5660 5652 5648 5647 5644 5641 5636 5631 5625 5622 5616 5610 5597 5591 5571 5558 5540 5527 5521 5518 5512 5507 5499 5492 5490 5483 5477 5472 5466 5462 5460 5455 5448 5440 5438 5441 5441 5443
5663 5659 5658 5655 5653 5649 5650 5648 5640 5632 5628 5627 5625 5618 5608 5599 5593 5584 5577 5562 5542 5535 5523 5515 5503 5499 5494 5486 5479 5474 5467 5464 5460 5450 5452 5448 5440 5432 5425 5426 5423 5423 5425
5655 5646 5643 5641 5640 5638 5635 5633 5632 5630 5624 5619 5612 5606 5601 5592 5585 5576 5568 5562 5551 5531 5522 5506 5499 5489 5481 5476 5471 5464 5457 5454 5447 5442 5439 5436 5424 5418 5415 5410 5409 5405 5410
5643 5641 5635 5630 5626 5623 5622 5619 5617 5614 5607 5597 5591 5587 5582 5576 5565 5561 5555 5548 5542 5535 5515 5502 5494 5486 5474 5467 5458 5453 5446 5442 5434 5431 5426 5422 5415 5408 5400 5396 5393 5392 5392
5626 5622 5620 5613 5611 5612 5608 5605 5603 5598 5592 5586 5580 5575 5567 5561 5554 5550 5540 5530 5527 5518 5505 5485 5481 5469 5461 5458 5451 5444 5435 5429 5423 5417 5414 5410 5403 5397 5391 5385 5380 5375 5372
5613 5609 5606 5604 5594 5588 5588 5587 5582 5579 5575 5570 5564 5556 5549 5542 5538 5533 5524 5518 5512 5506 5497 5478 5467 5459 5453 5449 5440 5434 5424 5418 5412 5405 5402 5395 5390 5384 5376 5369 5359 5352 5348
5596 5592 5589 5586 5584 5586 5570 5569 5568 5561 5552 5547 5544 5537 5532 5526 5519 5512 5508 5500 5493 5490 5484 5470 5458 5449 5444 5439 5431 5420 5413 5407 5400 5394 5388 5381 5374 5366 5355 5347 5339 5333 5327
5579 5578 5572 5570 5566 5561 5561 5552 5544 5543 5542 5531 5524 5521 5512 5506 5501 5491 5488 5483 5479 5475 5467 5458 5448 5443 5437 5428 5426 5413 5403 5396 5389 5383 5375 5366 5356 5346 5337 5329 5319 5314 5306
5564 5561 5559 5553 5554 5549 5538 5533 5523 5521 5516 5509 5503 5498 5492 5487 5485 5476 5473 5469 5467 5464 5459 5447 5438 5432 5428 5421 5417 5404 5396 5388 5377 5372 5363 5352 5345 5331 5321 5310 5304 5298 5291
5548 5546 5548 5539 5535 5530 5516 5506 5499 5501 5500 5496 5490 5483 5479 5468 5466 5464 5461 5458 5453 5454 5451 5442 5434 5431 5425 5422 5413 5403 5390 5379 5372 5360 5354 5343 5330 5319 5307 5300 5294 5288 5282
5539 5534 5528 5517 5514 5507 5498 5492 5490 5487 5483 5481 5480 5473 5468 5464 5459 5453 5449 5446 5435 5439 5446 5441 5432 5428 5423 5418 5409 5397 5388 5382 5379 5356 5346 5330 5315 5308 5301 5294 5287 5282 5277
5517 5512 5508 5497 5489 5484 5479 5478 5473 5470 5466 5463 5464 5461 5456 5448 5449 5444 5442 5433 5421 5422 5427 5432 5422 5425 5423 5413 5409 5399 5387 5373 5360 5346 5338 5323 5309 5304 5298 5292 5285 5280 5275
5493 5488 5480 5472 5469 5468 5464 5460 5451 5444 5441 5444 5445 5439 5443 5438 5438 5431 5429 5420 5408 5406 5414 5420 5415 5416 5412 5407 5401 5392 5379 5367 5351 5338 5326 5318 5309 5303 5296 5291 5287 5281 5277
5468 5464 5460 5457 5455 5454 5445 5435 5428 5423 5419 5419 5425 5434 5423 5426 5426 5426 5420 5418 5403 5395 5402 5404 5405 5403 5398 5396 5392 5386 5376 5366 5352 5333 5322 5318 5309 5305 5298 5292 5287 5282 5277